AC0ZH Weather Reports


Display with metric or nautical units.
time (UTC)temp
F
wind
direction
speed
MPH
gust
MPH
rain 1hr
in
rain 24hr
in
rain mn
in
humidity
%
barometer
mb
20260906194141 82 206 0.0 0.0 0.00 0.00 0.00 78
20260906193140 82 206 0.0 0.0 0.00 0.00 0.00 79
20260906192140 82 206 0.0 0.0 0.00 0.00 0.00 79
20260906191139 82 234 0.0 0.0 0.00 0.00 0.00 79
20260906190138 82 207 0.0 0.0 0.00 0.00 0.00 79
20260906185138 82 126 0.0 0.0 0.00 0.00 0.00 79
20260906184138 82 211 0.0 0.0 0.00 0.00 0.00 80
20260906183138 81 188 0.0 0.0 0.00 0.00 0.00 80
20260906182637 81 212 2.0 2.0 0.00 0.00 0.00 80
20260906181636 81 214 1.0 2.0 0.00 0.00 0.00 81
20260906180636 81 219 0.0 0.0 0.00 0.00 0.00 81
20260906175635 81 216 1.0 1.0 0.00 0.00 0.00 81
20260906174634 80 138 0.0 0.0 0.00 0.00 0.00 82
20260906173635 80 194 0.0 0.0 0.00 0.00 0.00 83
20260906172635 79 231 0.0 1.0 0.00 0.00 0.00 83
20260906171634 78 241 0.0 0.0 0.00 0.00 0.00 84
20260906170634 78 226 0.0 0.0 0.00 0.00 0.00 84
20260906165623 77 254 0.0 0.0 0.00 0.00 0.00 84
20260906164613 77 154 0.0 1.0 0.00 0.00 0.00 85
20260906163602 76 317 0.0 0.0 0.00 0.00 0.00 85
20260906162553 76 240 0.0 1.0 0.00 0.00 0.00 85
20260906162042 76 346 0.0 0.0 0.00 0.00 0.00 86
20260906161041 75 224 0.0 0.0 0.00 0.00 0.00 86
20260906160540 75 261 0.0 1.0 0.00 0.00 0.00 86
20260906155530 74 214 0.0 1.0 0.00 0.00 0.00
20260906154529 73 253 0.0 0.0 0.00 0.00 0.00
20260906153519 72 242 0.0 0.0 0.00 0.00 0.00
20260906152509 72 185 0.0 0.0 0.00 0.00 0.00 87
20260906151509 71 118 0.0 0.0 0.00 0.00 0.00 87
20260906150509 71 359 0.0 0.0 0.00 0.00 0.00 87
20260906145509 70 89 0.0 0.0 0.00 0.00 0.00 87
20260906144508 70 174 0.0 0.0 0.00 0.00 0.00 87
20260906143507 70 41 0.0 0.0 0.00 0.00 0.00 87
20260906142505 69 54 0.0 1.0 0.00 0.00 0.00 88
20260906141505 69 112 0.0 0.0 0.00 0.00 0.00 88
20260906140505 69 101 0.0 0.0 0.00 0.00 0.00 88
20260906135505 69 58 0.0 0.0 0.00 0.00 0.00 88
20260906134504 69 98 3.0 4.0 0.00 0.00 0.00 88
20260906134002 69 79 0.0 0.0 0.00 0.00 0.00 88
20260906133001 69 52 0.0 0.0 0.00 0.00 0.00 88
20260906132000 69 64 0.0 0.0 0.00 0.00 0.00 87
20260906120859 68 27 0.0 0.0 0.00 0.00 0.00
20260906115900 68 29 0.0 0.0 0.00 0.00 0.00
20260906115359 68 187 0.0 0.0 0.00 0.00 0.00
20260906114350 67 17 0.0 0.0 0.00 0.00 0.00
20260906113845 67 23 0.0 0.0 0.00 0.00 0.00
20260906112842 67 82 0.0 0.0 0.00 0.00 0.00
20260906111840 67 19 0.0 0.0 0.00 0.00 0.00
20260906110839 67 62 0.0 0.0 0.00 0.00 0.00
20260906105838 67 63 0.0 0.0 0.00 0.00 0.00 86
20260906104838 67 68 0.0 0.0 0.00 0.00 0.00 86
20260906104337 67 63 0.0 0.0 0.00 0.00 0.00 86
20260906103825 67 64 0.0 0.0 0.00 0.00 0.00 86
20260906103325 67 40 0.0 0.0 0.00 0.00 0.00 86
20260906102816 67 29 0.0 0.0 0.00 0.00 0.00 86
20260906101815 67 57 0.0 0.0 0.00 0.00 0.00 86
20260906100814 67 56 0.0 0.0 0.00 0.00 0.00 86
20260906100313 67 53 0.0 0.0 0.00 0.00 0.00 85
20260906095804 67 112 0.0 0.0 0.00 0.00 0.00 85
20260906095306 67 61 0.0 0.0 0.00 0.00 0.00 85
20260906094253 67 98 0.0 0.0 0.00 0.00 0.00 85
20260906093252 68 102 0.0 0.0 0.00 0.00 0.00 85
20260906092251 68 105 0.0 0.0 0.00 0.00 0.00 86
20260906091240 68 125 0.0 0.0 0.00 0.00 0.00 84
20260906090732 68 125 0.0 0.0 0.00 0.00 0.00 84
20260906085729 68 68 0.0 0.0 0.00 0.00 0.00 84
20260906085229 68 5 0.0 0.0 0.00 0.00 0.00 84
20260906084719 69 81 0.0 0.0 0.00 0.00 0.00 83
20260906084217 69 36 0.0 0.0 0.00 0.00 0.00 83
20260906083206 69 63 0.0 0.0 0.00 0.00 0.00 83
20260906082156 69 8 0.0 0.0 0.00 0.00 0.00 83
20260906081150 0 0.0 0.0 0.00 0.00 0.00
20260906080147 69 123 0.0 0.0 0.00 0.00 0.00 83
20260906075147 69 149 0.0 0.0 0.00 0.00 0.00 82
20260906074147 69 88 0.0 0.0 0.00 0.00 0.00 82
20260906073147 69 20 0.0 0.0 0.00 0.00 0.00 82
20260906072146 69 61 0.0 0.0 0.00 0.00 0.00 82
20260906071145 70 72 0.0 0.0 0.00 0.00 0.00 82
20260906070142 70 82 0.0 0.0 0.00 0.00 0.00 81
20260906065142 70 101 0.0 0.0 0.00 0.00 0.00 80
20260906064141 70 59 0.0 0.0 0.00 0.00 0.00 81
20260906063141 71 34 0.0 0.0 0.00 0.00 0.00
20260906062140 71 98 0.0 0.0 0.00 0.00 0.00
20260906061138 71 78 0.0 0.0 0.00 0.00 0.00 79
20260906060138 71 88 0.0 0.0 0.00 0.00 0.00 79
20260906055138 71 23 0.0 0.0 0.00 0.00 0.00 79
20260906054637 71 23 0.0 0.0 0.00 0.00 0.00 79
20260906053635 71 22 0.0 0.0 0.00 0.00 0.00 79
20260906052635 71 103 0.0 0.0 0.00 0.00 0.00 79
20260906051634 71 47 0.0 0.0 0.00 0.00 0.00 79
20260906050633 72 52 0.0 0.0 0.00 0.00 0.00 78
20260906045631 72 10 0.0 0.0 0.00 0.00 0.00 78
20260906044629 72 55 0.0 0.0 0.00 0.00 0.00 78
20260906043627 72 38 0.0 0.0 0.00 0.00 0.00 78
20260906042626 72 92 0.0 0.0 0.00 0.00 0.00 78
20260906041625 72 73 0.0 0.0 0.00 0.00 0.00 77
20260906040625 73 72 0.0 0.0 0.00 0.00 0.00 77
20260906035626 73 36 0.0 0.0 0.00 0.00 0.00 77
20260906034625 73 94 0.0 0.0 0.00 0.00 0.00 77
20260906033625 73 77 0.0 0.0 0.00 0.00 0.00
20260906032622 74 97 0.0 0.0 0.00 0.00 0.00 76
20260906031622 74 119 0.0 1.0 0.00 0.00 0.00 76
20260906030623 74 65 0.0 0.0 0.00 0.00 0.00 76
20260906025622 74 64 0.0 0.0 0.00 0.00 0.00 76
20260906024621 74 68 0.0 0.0 0.00 0.00 0.00 76
20260906023621 74 66 0.0 0.0 0.00 0.00 0.00 76
20260906022620 75 106 0.0 0.0 0.00 0.00 0.00 75
20260906022119 75 85 0.0 0.0 0.00 0.00 0.00 75
20260906021117 75 119 0.0 0.0 0.00 0.00 0.00 75
20260906020118 75 63 0.0 0.0 0.00 0.00 0.00 75
20260906015117 75 115 0.0 0.0 0.00 0.00 0.00 74
20260906014116 75 84 0.0 0.0 0.00 0.00 0.00 74
20260906013115 76 90 0.0 0.0 0.00 0.00 0.00 74
20260906012114 76 70 0.0 0.0 0.00 0.00 0.00 74
20260906011115 76 123 0.0 0.0 0.00 0.00 0.00 73
20260906010114 77 74 0.0 0.0 0.00 0.00 0.00 72
20260906005115 77 74 0.0 0.0 0.00 0.00 0.00 71
20260906004112 78 74 0.0 0.0 0.00 0.00 0.00 71
20260906003111 78 72 0.0 0.0 0.00 0.00 0.00 71
20260906002110 78 126 0.0 0.0 0.00 0.00 0.00 70
20260906001109 79 55 0.0 0.0 0.00 0.00 0.00 69
20260906000110 79 80 0.0 0.0 0.00 0.00 0.00 69
20260905235108 79 6 0.0 0.0 0.00 0.00 0.00 69
20260905234108 80 96 0.0 0.0 0.00 0.00 0.00 69
20260905233109 80 44 0.0 0.0 0.00 0.00 0.00 69
20260905232108 80 78 1.0 1.0 0.00 0.00 0.00 68
20260905231106 80 3 0.0 0.0 0.00 0.00 0.00 68
20260905230107 80 59 0.0 0.0 0.00 0.00 0.00 68
20260905225606 80 74 2.0 4.0 0.00 0.00 0.00 68
20260905224605 80 140 0.0 0.0 0.00 0.00 0.00 68
20260905224102 81 98 2.0 4.0 0.00 0.00 0.00 67
20260905223102 81 91 0.0 0.0 0.00 0.00 0.00 68
20260905222101 81 73 0.0 0.0 0.00 0.00 0.00 68
20260905221101 81 74 1.0 1.0 0.00 0.00 0.00 68
20260905220057 81 12 4.0 6.0 0.00 0.00 0.00 68
20260905215057 80 150 0.0 0.0 0.00 0.00 0.00 69
20260905214057 80 316 2.0 2.0 0.00 0.00 0.00 69
20260905213058 80 113 1.0 1.0 0.00 0.00 0.00 69
20260905212057 80 78 1.0 1.0 0.00 0.00 0.00 71
20260905211055 80 116 1.0 2.0 0.00 0.00 0.00 71
20260905210055 79 108 2.0 4.0 0.00 0.00 0.00 71
20260905205053 79 119 1.0 1.0 0.00 0.00 0.00 73
20260905204552 78 134 1.0 2.0 0.00 0.00 0.00 74
20260905203550 78 103 1.0 2.0 0.00 0.00 0.00 73
20260905202549 78 106 4.0 6.0 0.00 0.00 0.00 74
20260905201549 77 93 0.0 0.0 0.00 0.00 0.00 74
20260905200548 77 134 1.0 1.0 0.00 0.00 0.00 75
20260905195548 77 106 2.0 3.0 0.00 0.00 0.00 75
20260905194548 77 59 0.0 0.0 0.00 0.00 0.00 74